Regional Weather Roundup
Issued by NWS

Home | Current Version | Previous Version | Text Only | Print | Product List | Glossary Off
Versions: 1 2 3 4 5 6 7 8 9 10 11 12 13 14 15 16 17 18 19 20 21 22 23 24 25 26

000
ASUS45 KBOU 280307
RWRCO

WEATHER ROUNDUP FOR COLORADO
NATIONAL WEATHER SERVICE DENVER/BOULDER CO
900 PM MDT THU JUL 27 2017

NOTE: "FAIR" INDICATES FEW OR NO CLOUDS BELOW 12000 FEET WITH NO
SIGNIFICANT WEATHER AND/OR OBSTRUCTIONS TO VISIBILITY.

COZ001>005-013-030-031-280400-
...NORTHWEST COLORADO...

CITY           SKY/WX    TMP DP  RH WIND       PRES   REMARKS
CRAIG          FAIR      69  53  56 E3        30.19R
HAYDEN         FAIR      70  46  43 E7        30.22S
MEEKER         FAIR      74  50  42 E3        30.18S
RABBIT EARS PA FAIR      55  43  62 N5        30.55S
STEAMBOAT SPGS FAIR      65  51  60 CALM      30.26R
WALDEN         FAIR      61  43  51 SE3       30.37R
$$

COZ006>008-011-280400-
...WEST CENTRAL VALLEYS...

CITY           SKY/WX    TMP DP  RH WIND       PRES   REMARKS
GRAND JUNCTION FAIR      88  50  27 N8        30.02R
MONTROSE       FAIR      77  52  41 E3        30.13R
EAGLE          FAIR      79  50  36 VRB3      30.22R
RIFLE          FAIR      81  53  37 CALM      30.09R
DELTA          FAIR      84  42  22 SW6       30.07R
NUCLA          FAIR      79  45  29 SE6       30.18R
$$

COZ017>023-064>068-280400-
...SOUTHWEST COLORADO...

CITY           SKY/WX    TMP DP  RH WIND       PRES   REMARKS
DURANGO        FAIR      74  51  44 NE5       30.21S
CORTEZ         FAIR      77  49  37 N8        30.15R
PAGOSA SPRINGS FAIR      71  47  41 SE3       30.31S
TELLURIDE      FAIR      63  52  67 SE6       30.44R
WOLF CREEK PAS FAIR      46  46 100 NW7       30.70S
$$

COZ009-010-012-014-032>034-037-058>063-280400-
...CENTRAL COLORADO...

CITY           SKY/WX    TMP DP  RH WIND       PRES   REMARKS
ASPEN          FAIR      68  49  50 CALM      30.29R
BUENA VISTA    MOCLDY    64  51  62 CALM      30.38S
COPPER MTN     LGT RAIN  59  43  55 NW7       30.67S
BERTHOUD PASS  FAIR      46  36  66 W15       30.70R
COTTONWOOD PAS CLOUDY    61  48  63 SE8       30.52S
GUNNISON       FAIR      69  50  50 E9        30.33R
KREMMLING      FAIR      73  45  35 S5        30.31R
LEADVILLE      CLOUDY    56  51  84 VRB5      30.46R
MONARCH PASS   CLOUDY    50  43  76 E7        30.78R
SALIDA         FAIR      65  56  73 SW8       30.42S
SUNLIGHT       FAIR      59  41  51 NW6       30.59R
WILKERSON PASS CLOUDY    48  45  87 SW7       30.64S
$$

COZ069>075-280400-
...SAN LUIS VALLEY/SANGRE DE CRISTO MOUNTAINS...

CITY           SKY/WX    TMP DP  RH WIND       PRES   REMARKS
ALAMOSA        CLOUDY    66  52  60 SE7       30.32R
DEL NORTE      CLOUDY    66  49  53 N16       30.38S
LA VETA PASS   NOT AVBL
SAGUACHE         N/A    N/A N/A N/A MISG        N/A
$$

COZ035-036-038>040-280400-
...NORTHERN COLORADO FRONT RANGE...

CITY           SKY/WX    TMP DP  RH WIND       PRES   REMARKS
DENVER INTL AP MOCLDY    75  60  59 S15       30.12F
DMNS CITY PARK   N/A     75  61  60 SE8       30.13R
AURORA         MOCLDY    74  61  64 S15G23    30.15S
FRONT RANGE AP FAIR      77  61  57 S10       30.15S
ERIE MUNI ARPT FAIR      79  59  49 SE8       30.10S
BOULDER MUN AP FAIR      79  59  50 W5        30.11R
CENTENNIAL     MOCLDY    73  61  65 S12       30.17S
BROOMFIELD     MOCLDY    77  59  53 S5        30.16R
FORT COLLINS   FAIR      77  64  64 S6        30.09S
LONGMONT       FAIR      81  59  47 S5        30.11R
$$

COZ041-046-047-076>085-087-088-280400-
...PIKES PEAK/PALMER DIVIDE AND SOUTHERN FOOTHILLS...

CITY           SKY/WX    TMP DP  RH WIND       PRES   REMARKS
COLO. SPRINGS  MOCLDY    71  61  70 S13       30.25S
A. F. ACADEMY  FAIR      69  59  72 S15       30.24F
SCHRIEVER AFB  FAIR      67  62  86 S8        30.26R
CHEYENNE MTN   MOCLDY    67  58  74 S12       30.25S
ELLICOTT       FAIR     N/A N/A N/A S9        30.24S
FALCON           N/A     66  62  87 S12       30.30F
FORT CARSON    FAIR      70  62  75 SW6       30.22S
LIMON          FAIR      70  64  81 S13       30.18R
MONUMENT HILL  FAIR      64  59  82 S15       30.29F
CANON CITY     MOCLDY    73  66  78 N5        30.19S
WALSENBURG     FAIR      70  59  68 W5        30.22F
TRINIDAD       FAIR      69  56  62 W14G22    30.20S
$$

COZ042>045-048>051-090-091-280400-
...NORTHEAST COLORADO...

CITY           SKY/WX    TMP DP  RH WIND       PRES   REMARKS
GREELEY ARPT   FAIR      78  62  57 S7        30.07S
AKRON          FAIR      76  59  55 SE15      30.10S
BURLINGTON     FAIR      71  63  75 S10       30.12S
WRAY           NOT AVBL
YUMA           FAIR      72  55  56 SE8       30.09R
STERLING       MOCLDY    79  63  57 S15       30.02F THUNDER
HOLYOKE        FAIR      75  63  64 SE10      30.07R
FORT MORGAN    FAIR      78  58  49 S13       30.07S
$$

COZ086-089-092>099-280400-
...SOUTHEAST COLORADO...

CITY           SKY/WX    TMP DP  RH WIND       PRES   REMARKS
PUEBLO         FAIR      76  66  71 E9        30.13F
LA JUNTA       FAIR      76  67  73 SE7       30.12R
LAMAR          FAIR      73  67  81 SE6       30.09R
SPRINGFIELD      N/A     69  67  93 E6        30.14R
$$




USA.gov is the U.S. government's official web portal to all federal, state and local government web resources and services.